Radiation Dose at Monitoring Post of Fukushima Daini Nuclear Power Station
Date,Time,MP-1(microSv/h),MP-2(microSv/h),MP-3(microSv/h),MP-4(microSv/h),MP-5(microSv/h),MP-6(microSv/h),MP-7(microSv/h),Wind Direction,Wind Velocity(m/s),Rain
2015/06/26,00:00,0.522,0.306,0.539,0.487,0.465,0.239,0.212,south,5.2,No
2015/06/26,00:10,0.517,0.305,0.541,0.492,0.470,0.241,0.213,south,5.9,No
2015/06/26,00:20,0.523,0.308,0.536,0.485,0.465,0.240,0.212,south,6.8,No
2015/06/26,00:30,0.517,0.306,0.543,0.492,0.467,0.240,0.211,south,7.5,No
2015/06/26,00:40,0.521,0.307,0.536,0.486,0.469,0.240,0.211,south,8.3,No
2015/06/26,00:50,0.520,0.305,0.542,0.488,0.466,0.241,0.211,south,7.6,No
2015/06/26,01:00,0.518,0.308,0.539,0.488,0.470,0.240,0.212,south-southwest,8.6,No
2015/06/26,01:10,0.521,0.305,0.541,0.487,0.466,0.239,0.211,south-southwest,7.5,No
2015/06/26,01:20,0.517,0.307,0.541,0.489,0.469,0.242,0.211,south,7.4,No
2015/06/26,01:30,0.522,0.306,0.539,0.486,0.464,0.239,0.212,south,7.1,No
2015/06/26,01:40,0.518,0.307,0.542,0.490,0.469,0.241,0.213,south,7.0,No
2015/06/26,01:50,0.522,0.305,0.537,0.488,0.464,0.239,0.212,south,6.7,No
2015/06/26,02:00,0.518,0.307,0.544,0.491,0.472,0.240,0.212,south,7.1,No
2015/06/26,02:10,0.521,0.305,0.537,0.485,0.463,0.240,0.211,south,6.5,No
2015/06/26,02:20,0.519,0.309,0.543,0.490,0.467,0.242,0.212,south,6.0,No
2015/06/26,02:30,0.520,0.305,0.540,0.485,0.467,0.240,0.211,south,5.9,No
2015/06/26,02:40,0.522,0.307,0.540,0.490,0.466,0.242,0.211,south,5.8,No
2015/06/26,02:50,0.517,0.305,0.540,0.486,0.469,0.240,0.212,south,6.4,No
2015/06/26,03:00,0.523,0.307,0.539,0.488,0.465,0.240,0.211,south,5.8,No
2015/06/26,03:10,0.518,0.306,0.543,0.488,0.471,0.242,0.211,south-southwest,5.9,No
2015/06/26,03:20,0.523,0.308,0.537,0.488,0.464,0.241,0.211,south-southwest,6.2,No
2015/06/26,03:30,0.518,0.306,0.543,0.491,0.471,0.240,0.212,south-southwest,6.0,No
2015/06/26,03:40,0.520,0.308,0.535,0.486,0.463,0.239,0.211,south-southwest,6.9,No
2015/06/26,03:50,0.519,0.306,0.542,0.491,0.470,0.240,0.212,south-southwest,6.4,No
2015/06/26,04:00,0.519,0.309,0.538,0.484,0.467,0.240,0.211,south-southwest,6.2,No
2015/06/26,04:10,0.521,0.306,0.543,0.489,0.468,0.240,0.212,south-southwest,5.0,No
2015/06/26,04:20,0.518,0.309,0.537,0.486,0.467,0.241,0.211,south-southwest,3.9,No
2015/06/26,04:30,0.523,0.305,0.540,0.491,0.465,0.240,0.212,south-southwest,4.1,No
2015/06/26,04:40,0.518,0.306,0.540,0.485,0.469,0.240,0.213,south-southwest,3.6,No
2015/06/26,04:50,0.523,0.305,0.540,0.491,0.466,0.241,0.213,south,3.6,No
2015/06/26,05:00,0.516,0.308,0.541,0.486,0.473,0.241,0.210,south,4.4,No
2015/06/26,05:10,0.522,0.305,0.538,0.489,0.464,0.240,0.211,south,5.3,No
2015/06/26,05:20,0.518,0.307,0.540,0.489,0.471,0.240,0.211,south-southwest,5.6,No
2015/06/26,05:30,0.520,0.305,0.538,0.488,0.466,0.241,0.212,south,5.2,No
2015/06/26,05:40,0.521,0.306,0.543,0.488,0.465,0.240,0.212,south-southwest,4.7,No
2015/06/26,05:50,0.517,0.306,0.537,0.485,0.468,0.240,0.212,south,3.9,No
2015/06/26,06:00,0.522,0.306,0.541,0.490,0.462,0.239,0.211,south-southwest,4.1,No
2015/06/26,06:10,0.517,0.308,0.539,0.484,0.470,0.240,0.211,south,4.4,No
2015/06/26,06:20,0.522,0.304,0.536,0.488,0.467,0.239,0.212,south,4.7,No
2015/06/26,06:30,0.520,0.306,0.543,0.487,0.464,0.239,0.211,south,4.7,No
2015/06/26,06:40,0.518,0.307,0.537,0.483,0.471,0.241,0.213,south,4.7,No
2015/06/26,06:50,0.523,0.306,0.541,0.490,0.466,0.241,0.213,south,4.7,No
2015/06/26,07:00,0.518,0.305,0.541,0.487,0.464,0.241,0.210,south,4.3,No
2015/06/26,07:10,0.519,0.307,0.534,0.483,0.469,0.240,0.209,south-southwest,4.5,No
2015/06/26,07:20,0.521,0.306,0.533,0.487,0.466,0.238,0.210,south,3.8,No
2015/06/26,07:30,0.518,0.306,0.541,0.488,0.461,0.240,0.212,south,3.9,No
2015/06/26,07:40,0.517,0.303,0.538,0.484,0.463,0.238,0.211,south,4.0,No
2015/06/26,07:50,0.522,0.307,0.535,0.480,0.469,0.239,0.211,south,4.7,No
2015/06/26,08:00,0.518,0.307,0.531,0.489,0.467,0.240,0.209,south,4.7,No
2015/06/26,08:10,0.514,0.304,0.542,0.489,0.462,0.240,0.210,south,5.3,No
2015/06/26,08:20,0.520,0.303,0.539,0.485,0.460,0.238,0.213,south-southeast,4.7,No
2015/06/26,08:30,0.522,0.307,0.535,0.482,0.470,0.239,0.211,south-southeast,4.9,No
2015/06/26,08:40,0.516,0.308,0.538,0.489,0.468,0.240,0.210,south,5.7,No
2015/06/26,08:50,0.516,0.305,0.541,0.490,0.462,0.240,0.211,south,5.6,No
2015/06/26,09:00,0.523,0.305,0.540,0.486,0.462,0.239,0.211,south,5.4,No
2015/06/26,09:10,0.521,0.307,0.533,0.483,0.471,0.240,0.211,south,6.3,No
2015/06/26,09:20,0.516,0.307,0.542,0.487,0.468,0.240,0.211,south-southeast,6.1,No
2015/06/26,09:30,0.517,0.307,0.539,0.490,0.465,0.239,0.212,south-southeast,6.5,No
2015/06/26,09:40,0.522,0.305,0.537,0.487,0.462,0.239,0.212,south-southeast,5.5,No
2015/06/26,09:50,0.519,0.307,0.534,0.483,0.469,0.241,0.210,south,6.4,No
2015/06/26,10:00,0.514,0.309,0.542,0.484,0.471,0.241,0.213,south,6.5,No
2015/06/26,10:10,0.518,0.306,0.541,0.489,0.466,0.239,0.212,south,6.4,No
2015/06/26,10:20,0.522,0.305,0.537,0.487,0.464,0.240,0.211,south,5.6,No
2015/06/26,10:30,0.524,0.304,0.536,0.487,0.463,0.240,0.211,south-southeast,4.3,No
2015/06/26,10:40,0.519,0.303,0.535,0.484,0.462,0.241,0.211,south,3.6,No
2015/06/26,10:50,0.515,0.305,0.542,0.482,0.461,0.241,0.210,south,2.5,No
2015/06/26,11:00,0.515,0.304,0.541,0.483,0.464,0.241,0.209,south-southwest,1.9,No
2015/06/26,11:10,0.515,0.304,0.539,0.484,0.464,0.240,0.209,south,5.5,No
2015/06/26,11:20,0.521,0.306,0.537,0.483,0.464,0.239,0.210,southeast,0.7,No
2015/06/26,11:30,0.525,0.305,0.535,0.484,0.464,0.241,0.212,south-southeast,2.2,No
2015/06/26,11:40,0.521,0.304,0.534,0.489,0.466,0.240,0.212,south,2.1,No
2015/06/26,11:50,0.516,0.304,0.535,0.491,0.466,0.240,0.212,south,4.2,No
2015/06/26,12:00,0.516,0.306,0.535,0.489,0.466,0.239,0.211,south-southwest,1.4,No
2015/06/26,12:10,0.517,0.305,0.541,0.487,0.465,0.240,0.211,-,CALM,No
2015/06/26,12:20,0.517,0.308,0.542,0.487,0.466,0.241,0.210,south-southwest,0.7,No
2015/06/26,12:30,0.521,0.310,0.538,0.483,0.471,0.242,0.210,southwest,0.7,No
2015/06/26,12:40,0.524,0.309,0.536,0.486,0.471,0.241,0.213,south-southeast,1.6,No
2015/06/26,12:50,0.520,0.307,0.541,0.492,0.469,0.241,0.212,south,4.1,No
2015/06/26,13:00,0.517,0.306,0.545,0.489,0.467,0.241,0.211,south,3.5,No
2015/06/26,13:10,0.525,0.307,0.540,0.487,0.465,0.241,0.211,south,5.5,No
2015/06/26,13:20,0.524,0.310,0.537,0.485,0.471,0.240,0.213,south-southeast,6.0,No
2015/06/26,13:30,0.518,0.308,0.541,0.492,0.471,0.239,0.213,south-southeast,7.4,No
2015/06/26,13:40,0.518,0.307,0.544,0.494,0.467,0.240,0.212,south,5.9,No
2015/06/26,13:50,0.524,0.308,0.541,0.489,0.466,0.241,0.212,south-southeast,6.5,No
2015/06/26,14:00,0.523,0.310,0.538,0.487,0.474,0.239,0.213,south-southeast,6.4,No
2015/06/26,14:10,0.516,0.307,0.545,0.493,0.469,0.240,0.212,south-southeast,5.8,No
2015/06/26,14:20,0.522,0.306,0.542,0.491,0.465,0.241,0.211,south-southeast,6.9,No
2015/06/26,14:30,0.523,0.309,0.540,0.486,0.472,0.240,0.213,south-southeast,6.7,No
2015/06/26,14:40,0.518,0.308,0.542,0.489,0.470,0.239,0.214,south-southeast,7.3,No
2015/06/26,14:50,0.518,0.305,0.541,0.494,0.465,0.241,0.211,south,6.4,No
2015/06/26,15:00,0.525,0.310,0.538,0.489,0.467,0.241,0.211,south,6.1,No
2015/06/26,15:10,0.522,0.309,0.538,0.485,0.472,0.241,0.213,south,5.5,No
2015/06/26,15:20,0.518,0.307,0.546,0.493,0.467,0.241,0.211,south,3.5,No
2015/06/26,15:30,0.525,0.306,0.541,0.490,0.462,0.240,0.212,south,6.0,No
2015/06/26,15:40,0.523,0.309,0.536,0.484,0.471,0.240,0.213,south,6.5,No
2015/06/26,15:50,0.517,0.307,0.542,0.491,0.469,0.239,0.211,south,5.6,No
2015/06/26,16:00,0.522,0.307,0.539,0.490,0.464,0.241,0.212,south,4.1,No
2015/06/26,16:10,0.524,0.309,0.538,0.486,0.472,0.240,0.213,south-southeast,6.1,No
2015/06/26,16:20,0.517,0.307,0.544,0.488,0.471,0.240,0.211,south,6.9,No
2015/06/26,16:30,0.520,0.306,0.541,0.492,0.465,0.240,0.212,south,5.6,No
2015/06/26,16:40,0.524,0.310,0.536,0.487,0.469,0.239,0.212,south,5.8,No
2015/06/26,16:50,0.518,0.308,0.541,0.488,0.472,0.241,0.212,south,4.8,Yes
2015/06/26,17:00,0.520,0.307,0.543,0.493,0.466,0.241,0.213,south,5.9,Yes
2015/06/26,17:10,0.525,0.310,0.538,0.489,0.469,0.240,0.216,south,6.9,Yes
2015/06/26,17:20,0.522,0.309,0.547,0.491,0.473,0.244,0.215,south,7.5,Yes
2015/06/26,17:30,0.524,0.312,0.546,0.496,0.468,0.244,0.216,south,7.4,Yes
2015/06/26,17:40,0.525,0.312,0.541,0.489,0.473,0.245,0.216,south,6.6,Yes
2015/06/26,17:50,0.521,0.308,0.548,0.493,0.470,0.243,0.215,south-southeast,6.7,Yes
2015/06/26,18:00,0.525,0.312,0.542,0.493,0.466,0.242,0.215,south-southeast,6.3,No
2015/06/26,18:10,0.525,0.310,0.542,0.487,0.472,0.242,0.214,south,6.1,No
2015/06/26,18:20,0.518,0.308,0.545,0.492,0.468,0.242,0.215,south,5.5,No
2015/06/26,18:30,0.525,0.310,0.538,0.489,0.466,0.242,0.212,south,5.9,No
2015/06/26,18:40,0.523,0.307,0.542,0.486,0.467,0.240,0.211,south,6.8,No
2015/06/26,18:50,0.516,0.309,0.543,0.491,0.464,0.241,0.212,south,7.2,No
2015/06/26,19:00,0.523,0.308,0.536,0.488,0.469,0.240,0.211,south,7.6,No
2015/06/26,19:10,0.518,0.306,0.545,0.487,0.467,0.239,0.213,south,7.8,No
2015/06/26,19:20,0.519,0.309,0.543,0.492,0.462,0.241,0.212,south,7.6,Yes
2015/06/26,19:30,0.524,0.306,0.536,0.485,0.471,0.239,0.211,south,8.1,Yes
2015/06/26,19:40,0.517,0.306,0.543,0.491,0.467,0.240,0.212,south,7.5,No
2015/06/26,19:50,0.521,0.308,0.538,0.488,0.468,0.242,0.210,south,7.6,No
2015/06/26,20:00,0.521,0.305,0.538,0.485,0.468,0.240,0.211,south,7.5,No
2015/06/26,20:10,0.515,0.307,0.543,0.490,0.463,0.240,0.212,south,8.5,No
2015/06/26,20:20,0.521,0.307,0.537,0.487,0.467,0.241,0.210,south,8.2,No
2015/06/26,20:30,0.522,0.306,0.543,0.487,0.469,0.239,0.214,south,7.8,No
2015/06/26,20:40,0.518,0.309,0.542,0.491,0.463,0.241,0.211,south,7.3,No
2015/06/26,20:50,0.524,0.306,0.536,0.488,0.468,0.239,0.211,south,7.9,No
2015/06/26,21:00,0.520,0.306,0.543,0.486,0.466,0.240,0.212,south,8.6,No
2015/06/26,21:10,0.517,0.307,0.541,0.491,0.464,0.241,0.211,south,8.5,No
2015/06/26,21:20,0.524,0.306,0.535,0.484,0.471,0.239,0.211,south,7.5,No
2015/06/26,21:30,0.518,0.306,0.543,0.488,0.465,0.240,0.212,south,6.9,No
2015/06/26,21:40,0.517,0.310,0.539,0.489,0.465,0.240,0.210,south,6.6,Yes
2015/06/26,21:50,0.524,0.305,0.536,0.483,0.468,0.238,0.212,south,8.1,Yes
2015/06/26,22:00,0.519,0.307,0.542,0.492,0.466,0.241,0.211,south-southeast,7.4,Yes
2015/06/26,22:10,0.519,0.308,0.537,0.487,0.467,0.239,0.212,south-southeast,7.7,Yes
2015/06/26,22:20,0.521,0.306,0.537,0.485,0.466,0.240,0.212,south-southeast,7.2,Yes
2015/06/26,22:30,0.517,0.309,0.542,0.493,0.463,0.242,0.212,south,7.2,Yes
2015/06/26,22:40,0.524,0.310,0.538,0.489,0.470,0.240,0.214,south,7.4,Yes
2015/06/26,22:50,0.523,0.309,0.542,0.489,0.467,0.243,0.211,south,7.2,Yes
2015/06/26,23:00,0.518,0.310,0.540,0.490,0.466,0.242,0.214,south,6.4,Yes
2015/06/26,23:10,0.526,0.309,0.539,0.485,0.468,0.243,0.214,south-southeast,5.8,Yes
2015/06/26,23:20,0.521,0.311,0.544,0.491,0.464,0.244,0.217,south,6.1,Yes
2015/06/26,23:30,0.522,0.311,0.537,0.489,0.470,0.246,0.218,south,5.7,Yes
2015/06/26,23:40,0.523,0.314,0.542,0.488,0.467,0.247,0.217,south,5.8,Yes
2015/06/26,23:50,0.518,0.313,0.541,0.490,0.469,0.246,0.217,south-southeast,5.9,Yes
